This is the latest recevied weather packets stored in our database for station/object K8GLX. If no packets are shown the sender has not sent any weather packets the latest 10 day(s).
| Time | Temp. | Humidity | Pressure | Rain* | Wind** | Luminosity | Snow |
|---|---|---|---|---|---|---|---|
| 1777570155 | 8.33° C | 70% | 1014.4 hPa | 0 mm | - | 602 W/m² | - |
| 1777569866 | 8.33° C | 71% | 1014.6 hPa | 0 mm | - | 577 W/m² | - |
| 1777569433 | 8.33° C | 72% | 1014.6 hPa | 0 mm | - | 491 W/m² | - |
| 1777569138 | 8.33° C | 77% | 1014.4 hPa | 0 mm | - | 1036 W/m² | - |
| 1777568832 | 7.78° C | 78% | 1014.5 hPa | 0 mm | - | 487 W/m² | - |
| 1777568666 | 7.78° C | 79% | 1014.4 hPa | 0 mm | - | 416 W/m² | - |
| 1777568233 | 7.22° C | 78% | 1014.5 hPa | 0 mm | - | 282 W/m² | - |
| 1777568066 | 7.22° C | 78% | 1014.5 hPa | 0 mm | - | 227 W/m² | - |
| 1777567632 | 7.78° C | 79% | 1014.5 hPa | 0 mm | - | 213 W/m² | - |
| 1777567466 | 7.78° C | 79% | 1014.5 hPa | 0 mm | - | 166 W/m² | - |
| 1777567033 | 7.78° C | 79% | 1014.8 hPa | 0 mm | - | 145 W/m² | - |
| 1777566744 | 7.78° C | 78% | 1014.5 hPa | 0 mm | - | 155 W/m² | - |
| 1777566433 | 7.78° C | 76% | 1014.3 hPa | 0 mm | - | 196 W/m² | - |
| 1777566266 | 8.33° C | 75% | 1014.4 hPa | 0 mm | - | 264 W/m² | - |
| 1777565954 | 8.33° C | 74% | 1014.7 hPa | 0 mm | - | 338 W/m² | - |
| 1777565666 | 8.33° C | 74% | 1014.5 hPa | 0 mm | - | 363 W/m² | - |
| 1777565232 | 7.78° C | 74% | 1014.5 hPa | 0 mm | - | 416 W/m² | - |
| 1777564939 | 7.78° C | 73% | 1014.3 hPa | 0 mm | - | 474 W/m² | - |
| 1777564633 | 7.78° C | 73% | 1014.3 hPa | 0 mm | - | 419 W/m² | - |
| 1777564466 | 7.78° C | 74% | 1014.5 hPa | 0 mm | - | 436 W/m² | - |
| 1777564033 | 8.33° C | 73% | 1014.4 hPa | 0 mm | - | 472 W/m² | - |
| 1777563865 | 8.33° C | 74% | 1014.3 hPa | 0 mm | - | 556 W/m² | - |
| 1777563433 | 8.33° C | 73% | 1014.6 hPa | 0 mm | - | 575 W/m² | - |
| 1777563139 | 8.33° C | 74% | 1014.4 hPa | 0 mm | - | 417 W/m² | - |
| 1777562833 | 8.33° C | 74% | 1014.3 hPa | 0 mm | - | 626 W/m² | - |
* Rain latest hour (hover to see other rain measurements)
** Current wind speed in m/s (hover to see current wind gust speed)